This is the latest recevied weather packets stored in our database for station/object KO6LQJ. If no packets are shown the sender has not sent any weather packets the latest 10 day(s).
| Time | Temp. | Humidity | Pressure | Rain* | Wind** | Luminosity | Snow |
|---|---|---|---|---|---|---|---|
| 1777991468 | 13.89° C | 66% | 1015.7 hPa | 0 mm | - | 137 W/m² | - |
| 1777991165 | 13.33° C | 69% | 1015.5 hPa | 0 mm | - | 104 W/m² | - |
| 1777990862 | 12.78° C | 70% | 1015.6 hPa | 0 mm | - | 87 W/m² | - |
| 1777990560 | 12.78° C | 71% | 1015.9 hPa | 0 mm | - | 73 W/m² | - |
| 1777989953 | 12.22° C | 72% | 1015.4 hPa | 0 mm | - | 34 W/m² | - |
| 1777989650 | 12.22° C | 73% | 1015.6 hPa | 0 mm | - | 33 W/m² | - |
| 1777989346 | 12.22° C | 73% | 1015.5 hPa | 0 mm | - | 24 W/m² | - |
| 1777989042 | 11.67° C | 73% | 1015.5 hPa | 0 mm | - | 32 W/m² | - |
| 1777988738 | 11.11° C | 75% | 1015.6 hPa | 0 mm | - | 26 W/m² | - |
| 1777988436 | 10.56° C | 75% | 1015.7 hPa | 0 mm | - | 16 W/m² | - |
| 1777988133 | 10.56° C | 75% | 1015.5 hPa | 0 mm | - | 12 W/m² | - |
| 1777987829 | 10.56° C | 75% | 1015.4 hPa | 0 mm | - | 11 W/m² | - |
| 1777987526 | 10.56° C | 74% | 1015.6 hPa | 0 mm | - | 8 W/m² | - |
| 1777987223 | 10.56° C | 73% | 1015.4 hPa | 0 mm | - | 6 W/m² | - |
| 1777986919 | 11.11° C | 73% | 1015.4 hPa | 0 mm | - | 4 W/m² | - |
| 1777986618 | 11.11° C | 73% | 1015.2 hPa | 0 mm | - | 2 W/m² | - |
| 1777986315 | 11.11° C | 73% | 1015.4 hPa | 0 mm | - | 1 W/m² | - |
| 1777986014 | 11.11° C | 73% | 1015.3 hPa | 0 mm | - | 0 W/m² | - |
| 1777985710 | 11.11° C | 73% | 1015.3 hPa | 0 mm | - | 0 W/m² | - |
| 1777985407 | 11.11° C | 73% | 1015.3 hPa | 0 mm | - | 0 W/m² | - |
| 1777985103 | 10.56° C | 73% | 1015.2 hPa | 0 mm | - | 0 W/m² | - |
| 1777984799 | 10.56° C | 73% | 1015.4 hPa | 0 mm | - | 0 W/m² | - |
| 1777984496 | 10.56° C | 73% | 1015.2 hPa | 0 mm | - | 0 W/m² | - |
| 1777984192 | 10.56° C | 73% | 1015.3 hPa | 0 mm | - | 0 W/m² | - |
| 1777983889 | 11.11° C | 73% | 1015.3 hPa | 0 mm | - | 0 W/m² | - |
* Rain latest hour (hover to see other rain measurements)
** Current wind speed in m/s (hover to see current wind gust speed)